Temp
61 61 61 61 61 61 62 62 62 62 62 62 62 62 62 59 60 58 48 55 58 61 58 56 57 55 55 54 55 57 47 47 51 52 54 54 53 64 65 62 67 70 68 66 71
61 61 60 60 60 60 60 61 61 61 62 62 61 61 61 58 56 52 57 60 60 59 53 49 47 49 51 49 52 50 46 49 49 47 44 47 48 52 54 60 61 65 68 69 69
60 60 60 60 60 60 60 60 60 61 61 61 61 59 60 60 52 48 58 58 58 57 53 51 50 47 45 47 45 46 42 45 45 45 44 43 45 51 49 50 59 56 59 64 65
60 60 59 60 59 59 59 60 60 60 60 61 60 58 59 57 40 51 56 56 56 55 53 50 48 43 42 39 43 36 44 44 43 44 42 41 46 44 47 49 58 59 60 61 62
60 59 59 59 59 59 59 59 59 60 60 60 59 57 57 46 43 55 55 54 55 52 47 44 42 41 36 38 40 38 41 42 44 43 43 45 42 44 46 53 56 58 58 58 60
59 59 59 58 59 59 59 59 59 59 59 60 59 59 53 37 53 55 53 52 51 50 47 47 43 42 38 37 35 40 38 39 41 42 42 39 41 44 45 45 48 53 56 57 54
59 58 58 58 58 59 59 59 59 59 59 60 57 57 48 41 55 55 53 51 52 50 46 47 48 41 40 36 41 38 32 37 39 39 38 40 36 30 35 43 47 51 47 47 46
58 58 58 58 58 58 59 60 60 60 60 59 58 56 41 54 58 52 53 52 53 53 50 50 49 42 38 41 37 31 32 24 35 36 38 36 28 29 31 33 37 39 40 40 42
58 57 57 57 57 57 59 60 59 59 59 58 55 53 40 54 48 52 51 45 48 50 50 51 46 39 39 30 27 29 18 22 26 36 34 31 27 29 31 30 29 34 35 35 38
57 57 57 57 56 55 58 58 57 57 57 58 55 48 47 40 45 48 50 48 43 44 41 42 40 34 32 25 12 14 16 21 22 30 30 28 23 26 30 28 28 28 32 32 32
56 56 56 56 55 54 55 56 52 50 49 44 42 41 42 46 49 45 46 43 44 40 31 35 30 21 23 27 24 22 19 18 26 30 26 26 22 23 27 26 25 26 28 30 29
56 56 56 56 54 52 53 48 44 48 38 44 43 43 44 44 38 42 46 37 37 29 34 32 23 28 30 30 25 23 20 20 25 29 25 23 20 22 24 22 23 23 25 26 29
56 55 55 55 53 51 47 44 47 48 44 39 42 40 41 43 35 36 39 34 30 29 27 24 26 30 27 26 21 22 18 17 16 22 27 23 20 19 23 24 24 25 25 27 26
55 55 54 55 51 47 45 47 48 48 40 36 38 40 42 40 33 41 40 33 31 25 26 25 30 26 24 22 22 17 25 19 17 16 16 21 13 16 19 19 21 22 23 24 25
55 55 52 53 48 46 45 47 48 47 31 36 37 46 41 37 36 37 40 36 26 24 27 22 23 21 20 21 24 19 23 20 19 15 15 20 16 14 20 15 17 19 21 23 25
55 54 52 50 48 45 46 47 47 35 30 33 36 33 34 34 32 35 34 36 31 25 27 24 29 26 22 26 26 24 22 21 16 17 12 15 13 10 12 13 17 19 21 22 24
54 53 50 49 45 45 46 45 35 33 37 32 30 32 30 28 28 28 24 20 19 17 17 22 18 25 26 20 26 18 15 11 10 10 9 15 14 9 15 18 18 17 19 21 23
52 51 48 47 46 45 46 42 34 31 31 32 30 31 27 27 26 25 23 22 22 17 16 12 17 18 21 17 13 13 10 5 -1 3 9 16 6 12 18 22 23 22 21 22 22
50 47 47 44 44 45 44 37 35 31 31 30 31 29 28 26 25 24 19 19 17 20 15 14 14 22 21 20 19 15 9 8 4 7 5 8 9 16 21 21 20 20 21 19 20
47 44 45 43 45 44 44 34 30 32 31 30 27 26 25 25 24 23 17 22 18 22 22 13 9 16 20 20 18 16 11 7 10 0 0 7 5 11 12 14 17 17 17 18 21
47 45 44 44 44 45 38 33 30 33 33 29 27 26 25 23 21 18 16 22 24 22 23 17 10 17 19 12 8 14 11 8 6 5 2 1 11 16 14 15 14 16 18 18 19
43 42 44 42 42 37 35 32 34 30 32 29 29 28 26 23 21 20 19 23 28 26 19 21 14 10 11 6 5 7 8 7 6 4 6 2 8 19 17 15 16 17 18 20 21
41 42 44 45 40 34 30 30 32 29 29 28 27 29 28 23 20 23 23 28 27 25 19 22 15 11 12 9 10 9 3 2 3 3 4 2 11 15 15 19 20 17 19 19 21
41 40 44 41 36 36 29 30 28 31 30 30 28 29 24 21 24 19 21 25 26 26 28 25 17 15 14 17 15 11 8 4 5 5 5 5 10 15 18 17 20 20 19 20 21
40 37 34 38 35 32 31 31 28 26 29 30 26 27 24 20 20 19 22 22 24 26 23 22 12 14 15 17 17 14 13 11 1 8 4 8 2 12 16 16 16 17 20 21 21
38 37 34 32 31 32 29 29 30 28 27 25 24 29 27 23 26 22 22 21 22 21 20 19 15 13 10 16 15 12 17 16 10 6 1 4 4 16 19 15 13 20 20 20 21
36 37 36 34 29 30 33 33 31 33 32 32 29 27 24 26 30 29 29 26 25 22 19 16 14 12 11 13 14 11 16 16 14 10 11 7 18 17 17 18 20 20 19 18 20
MSLP
1025.78 1025.62 1025.53 1025.29 1025.20 1025.04 1024.80 1024.63 1024.34 1024.15 1023.84 1023.56 1023.39 1023.09 1022.89 1023.16 1022.98 1022.74 1022.48 1024.38 1023.42 1022.58 1022.28 1021.28 1020.21 1019.52 1018.90 1018.38 1018.16 1017.31 1015.84 1013.08 1012.56 1012.42 1011.87 1013.02 1012.46 1010.99 1010.84 1009.94 1009.15 1008.73 1008.81 1009.62 1009.40
1026.21 1025.87 1025.80 1025.48 1025.17 1025.06 1024.95 1024.84 1024.58 1024.33 1024.00 1023.71 1023.46 1023.15 1022.76 1023.13 1023.08 1023.39 1025.18 1024.28 1023.51 1022.89 1022.25 1021.38 1020.58 1020.18 1018.96 1018.93 1018.56 1017.62 1015.83 1014.56 1015.31 1015.62 1015.60 1015.45 1014.73 1013.66 1012.42 1010.31 1009.70 1009.48 1009.67 1010.01 1009.81
1026.39 1026.13 1025.93 1025.70 1025.25 1025.22 1024.93 1024.83 1024.53 1024.27 1024.29 1023.99 1023.77 1023.41 1023.08 1023.12 1023.14 1024.92 1025.21 1024.49 1023.83 1023.30 1022.80 1022.29 1021.64 1020.86 1019.96 1019.95 1019.85 1018.94 1017.40 1017.21 1017.09 1017.66 1017.86 1017.00 1016.04 1015.36 1014.05 1011.91 1011.01 1010.99 1011.13 1010.72 1010.51
1026.57 1026.24 1026.01 1025.83 1025.56 1025.31 1025.09 1024.76 1024.71 1024.66 1024.57 1024.32 1024.27 1024.17 1023.94 1023.46 1025.49 1026.12 1025.93 1025.13 1024.25 1023.62 1022.78 1022.25 1021.66 1021.13 1021.04 1020.97 1021.30 1020.73 1019.35 1019.16 1018.92 1018.90 1018.33 1017.66 1017.19 1016.00 1015.34 1014.00 1012.68 1012.58 1012.42 1011.81 1011.19
1026.68 1026.39 1026.15 1025.95 1025.72 1025.45 1025.23 1025.08 1024.90 1024.73 1024.43 1024.33 1024.36 1024.47 1024.43 1025.19 1027.22 1027.22 1026.44 1025.65 1024.53 1024.04 1023.58 1023.11 1022.74 1022.45 1022.41 1022.36 1021.80 1021.03 1020.51 1020.26 1019.78 1019.46 1018.92 1018.19 1017.19 1016.28 1015.27 1015.10 1013.98 1013.53 1013.18 1012.71 1012.27
1027.04 1026.75 1026.41 1026.21 1025.83 1025.36 1025.18 1025.18 1024.92 1024.78 1024.91 1024.87 1024.72 1024.56 1024.64 1026.52 1028.15 1027.45 1026.73 1025.88 1025.17 1024.33 1024.08 1023.76 1023.53 1023.62 1023.22 1022.92 1022.55 1022.00 1021.63 1020.98 1020.29 1019.49 1018.89 1018.21 1017.23 1016.96 1016.49 1016.57 1015.08 1014.18 1013.74 1013.49 1013.62
1027.11 1026.83 1026.56 1026.28 1026.00 1025.49 1025.23 1025.08 1024.90 1024.86 1024.83 1024.71 1025.14 1025.12 1025.83 1028.09 1028.05 1027.44 1026.73 1026.03 1025.52 1024.85 1024.39 1024.68 1024.40 1024.27 1024.18 1023.29 1023.13 1022.78 1021.87 1021.04 1020.27 1020.30 1019.49 1019.14 1018.01 1018.93 1019.74 1017.66 1015.70 1015.30 1015.70 1015.56 1015.47
1027.01 1026.86 1026.55 1026.25 1026.02 1025.73 1025.40 1025.19 1024.99 1024.94 1024.86 1025.06 1025.36 1025.25 1026.91 1027.82 1027.65 1027.64 1026.93 1026.01 1025.59 1025.03 1024.88 1024.98 1024.87 1024.74 1024.83 1024.42 1023.60 1023.25 1022.39 1021.77 1020.84 1021.02 1020.14 1020.33 1019.03 1020.82 1021.10 1020.03 1018.42 1017.99 1017.58 1017.31 1016.92
1027.06 1026.78 1026.55 1026.23 1026.08 1025.87 1025.65 1025.54 1025.51 1025.29 1025.18 1025.26 1025.26 1025.22 1027.14 1027.80 1027.57 1027.73 1027.52 1026.61 1025.85 1025.45 1025.34 1025.32 1025.26 1025.36 1025.06 1024.60 1024.16 1024.03 1023.65 1022.73 1021.73 1021.49 1021.19 1021.27 1020.78 1022.03 1022.29 1021.70 1020.72 1019.76 1019.01 1018.66 1018.17
1027.02 1026.61 1026.53 1026.39 1026.17 1025.98 1025.94 1025.89 1025.87 1025.68 1025.76 1025.56 1025.64 1026.08 1027.27 1028.02 1028.10 1027.99 1027.60 1027.14 1026.26 1025.72 1025.77 1025.39 1025.31 1025.44 1025.86 1025.72 1025.88 1025.46 1024.81 1023.75 1022.63 1022.07 1022.13 1021.64 1022.40 1023.19 1023.12 1022.85 1021.95 1021.58 1020.72 1020.18 1019.74
1026.99 1026.66 1026.34 1026.17 1026.27 1026.03 1026.04 1026.00 1026.24 1026.23 1026.34 1026.89 1027.65 1027.38 1028.03 1028.36 1028.19 1027.81 1027.91 1027.39 1026.42 1026.23 1026.26 1026.32 1025.74 1026.38 1027.02 1027.02 1027.14 1026.52 1025.54 1024.38 1023.14 1022.96 1022.98 1022.38 1023.15 1023.87 1024.20 1023.96 1023.20 1022.75 1022.23 1021.45 1020.95
1026.95 1026.52 1026.16 1026.07 1026.26 1026.27 1026.10 1026.37 1027.06 1027.28 1027.58 1027.94 1028.07 1028.37 1028.60 1028.69 1028.09 1027.91 1028.03 1027.49 1027.06 1026.87 1026.97 1026.40 1026.91 1027.94 1027.97 1027.43 1027.01 1026.21 1025.44 1024.37 1023.62 1023.28 1023.65 1022.61 1023.27 1024.21 1024.70 1025.06 1024.90 1024.37 1023.50 1022.56 1021.70
1027.00 1026.60 1026.30 1026.20 1026.45 1026.32 1026.91 1027.31 1027.66 1027.54 1026.97 1027.98 1028.13 1028.49 1028.75 1028.89 1028.88 1028.76 1029.03 1028.60 1028.17 1027.75 1028.04 1027.72 1028.59 1028.58 1028.30 1027.48 1027.06 1026.28 1025.69 1025.17 1024.73 1023.58 1022.66 1022.96 1023.17 1024.33 1025.13 1025.66 1025.65 1025.20 1024.62 1023.69 1022.85
1026.99 1026.64 1026.32 1026.08 1026.63 1027.04 1027.44 1027.69 1027.64 1027.59 1027.28 1027.92 1028.05 1028.53 1028.91 1028.78 1029.18 1029.40 1029.63 1029.53 1028.77 1028.89 1028.79 1028.73 1028.94 1028.96 1028.54 1028.12 1027.78 1026.11 1025.95 1025.58 1024.77 1023.94 1022.18 1023.07 1022.23 1024.11 1025.25 1025.71 1025.82 1025.49 1024.79 1024.18 1023.49
1026.99 1026.61 1026.54 1025.99 1026.56 1027.00 1027.59 1027.68 1027.78 1027.66 1027.52 1027.98 1028.09 1028.73 1028.82 1028.92 1029.51 1029.45 1030.28 1029.42 1029.73 1029.85 1029.73 1029.57 1029.56 1029.44 1029.19 1028.87 1028.39 1027.04 1026.28 1025.42 1024.84 1024.27 1023.69 1022.63 1022.94 1024.91 1025.44 1025.70 1025.89 1025.97 1025.59 1024.93 1024.24
1026.78 1026.63 1026.46 1026.62 1026.74 1027.61 1027.70 1027.59 1027.54 1027.61 1026.84 1027.50 1028.17 1028.62 1028.65 1029.29 1030.00 1030.03 1030.31 1030.58 1030.79 1030.52 1030.24 1030.20 1030.32 1030.33 1030.41 1029.51 1028.76 1028.23 1026.13 1025.41 1025.09 1024.52 1023.47 1024.03 1024.36 1025.40 1026.51 1027.33 1026.98 1026.76 1026.34 1025.65 1024.76
1026.64 1026.38 1026.61 1026.83 1027.17 1027.38 1027.53 1027.09 1027.08 1026.86 1027.30 1027.58 1028.29 1028.85 1029.15 1029.72 1030.32 1030.69 1031.25 1031.68 1031.95 1031.34 1030.79 1030.38 1030.40 1030.69 1030.83 1029.76 1028.96 1029.14 1027.13 1026.09 1025.37 1024.59 1024.21 1024.84 1024.85 1026.75 1027.64 1027.81 1027.81 1027.38 1026.87 1026.19 1025.42
1026.85 1026.65 1026.73 1026.89 1027.60 1027.54 1026.90 1026.72 1026.62 1027.07 1027.67 1028.43 1028.69 1029.01 1029.19 1030.26 1030.82 1031.09 1031.44 1032.21 1032.97 1033.16 1032.56 1031.93 1030.53 1031.48 1031.89 1031.98 1031.87 1031.41 1031.38 1030.58 1028.98 1027.26 1025.80 1025.54 1026.21 1026.94 1027.77 1027.84 1027.85 1027.78 1027.35 1026.64 1025.75
1026.75 1027.01 1027.10 1027.28 1027.37 1027.62 1026.91 1026.08 1027.07 1027.67 1028.56 1028.68 1028.85 1029.06 1029.38 1030.30 1031.05 1031.08 1032.01 1032.77 1033.56 1033.70 1033.73 1033.29 1032.24 1032.10 1032.26 1032.81 1033.04 1032.38 1032.82 1033.75 1031.99 1030.02 1028.32 1027.02 1027.27 1027.47 1027.54 1027.68 1027.86 1027.65 1027.27 1026.85 1026.21
1026.81 1026.86 1027.39 1027.42 1027.43 1027.47 1026.50 1026.82 1027.92 1028.57 1029.32 1029.48 1029.45 1029.84 1029.69 1030.27 1030.87 1031.34 1031.94 1032.91 1033.33 1033.93 1034.23 1034.62 1033.95 1032.54 1032.64 1033.43 1033.95 1033.96 1034.82 1034.12 1033.02 1031.37 1029.06 1027.62 1027.63 1027.27 1027.58 1027.61 1027.80 1027.58 1027.42 1027.12 1026.59
1026.91 1026.75 1027.40 1027.41 1027.73 1026.93 1026.49 1027.61 1028.51 1029.37 1029.86 1030.12 1029.99 1030.08 1030.37 1030.88 1031.44 1031.70 1032.08 1032.64 1033.12 1033.70 1034.19 1034.55 1034.99 1032.52 1032.90 1034.01 1034.83 1034.79 1034.80 1035.08 1035.15 1033.83 1031.98 1029.60 1027.32 1027.91 1028.39 1028.46 1028.39 1028.11 1027.76 1027.40 1026.85
1027.32 1027.10 1027.41 1027.52 1027.56 1027.40 1027.33 1028.11 1029.03 1029.73 1030.31 1030.55 1030.58 1030.50 1030.69 1031.11 1031.43 1031.66 1031.84 1032.13 1032.78 1033.27 1033.53 1034.08 1034.39 1033.26 1033.39 1035.19 1035.88 1035.84 1035.77 1035.67 1035.25 1034.29 1033.43 1032.28 1028.57 1028.02 1028.44 1028.63 1028.61 1028.20 1027.85 1027.46 1027.04
1027.43 1027.13 1027.20 1027.00 1027.02 1027.44 1028.40 1028.64 1029.25 1029.94 1030.23 1030.65 1030.69 1030.82 1031.21 1031.31 1031.56 1031.55 1031.80 1032.05 1032.67 1033.04 1033.23 1033.75 1033.60 1032.86 1032.81 1034.76 1035.12 1035.33 1035.84 1036.15 1036.12 1035.67 1033.75 1032.40 1028.37 1028.27 1028.61 1028.26 1028.04 1028.04 1027.78 1027.43 1026.94
1027.87 1027.35 1026.88 1026.91 1027.48 1027.13 1027.97 1028.54 1029.30 1029.96 1030.15 1030.52 1030.69 1030.97 1031.39 1031.40 1031.63 1031.68 1031.73 1032.12 1032.73 1032.98 1033.12 1033.63 1033.26 1032.90 1032.41 1032.01 1033.08 1033.54 1034.43 1035.44 1035.56 1034.87 1033.40 1031.70 1028.95 1027.91 1028.00 1028.02 1027.75 1027.61 1027.62 1027.23 1026.73
1028.27 1028.18 1028.50 1027.50 1027.46 1027.59 1027.85 1028.22 1028.94 1029.65 1030.22 1030.49 1030.65 1030.55 1030.83 1031.10 1031.22 1031.40 1031.70 1032.12 1032.73 1032.96 1033.51 1033.70 1033.08 1032.55 1031.63 1031.36 1031.61 1031.88 1032.30 1033.33 1034.04 1033.36 1033.17 1030.47 1030.14 1028.35 1028.00 1028.17 1027.95 1027.79 1027.26 1026.89 1026.50
1028.89 1028.88 1028.93 1028.39 1028.17 1027.94 1028.13 1028.06 1028.16 1028.92 1029.49 1029.97 1030.25 1029.85 1030.65 1030.71 1030.33 1030.73 1031.41 1032.07 1032.23 1033.37 1033.59 1034.12 1033.00 1032.53 1030.73 1030.17 1030.44 1030.22 1030.31 1030.90 1031.79 1032.32 1031.96 1030.68 1029.51 1028.08 1027.69 1028.04 1027.97 1027.17 1026.98 1026.68 1026.52
1029.12 1029.26 1028.93 1028.40 1028.30 1028.09 1027.48 1027.48 1027.72 1028.25 1028.70 1029.07 1029.55 1030.09 1030.63 1030.55 1030.75 1031.11 1031.36 1031.81 1032.26 1032.82 1033.44 1033.93 1033.48 1032.74 1030.23 1029.83 1029.45 1028.55 1027.55 1028.43 1029.18 1029.86 1029.51 1028.97 1027.14 1027.30 1027.12 1027.09 1026.95 1026.75 1026.85 1026.71 1026.51
Wind_Speed
12 12 12 11 11 9 9 10 10 9 9 8 8 10 7 6 12 28 26 24 23 25 20 16 14 19 2 3 3 3 7 14 20 15 11 14 11 6 9 11 10 3 7 8 16
12 12 11 9 9 9 7 8 10 11 12 9 6 13 5 4 5 24 26 28 24 23 15 16 16 14 4 4 3 6 8 10 10 12 10 16 13 16 12 11 12 10 2 12 15
12 12 11 10 8 7 7 6 6 10 15 14 12 16 9 2 4 14 31 27 22 19 10 7 8 5 5 4 6 5 9 13 6 12 16 18 19 14 14 16 14 6 14 17 17
12 12 11 10 9 7 5 3 3 7 9 15 11 15 19 3 7 16 28 24 19 16 14 10 11 6 6 7 6 8 10 13 15 18 23 21 20 22 20 22 23 19 18 19 15
12 13 12 10 10 9 6 4 1 2 5 10 15 9 4 12 10 21 23 18 12 13 12 9 14 7 8 8 11 12 12 15 20 19 19 21 22 24 24 22 27 24 17 18 16
13 13 13 12 12 11 7 3 0 2 2 6 9 10 8 11 11 19 16 14 14 12 12 16 10 3 5 9 7 11 17 19 18 17 14 17 16 13 12 23 21 21 19 15 14
13 13 14 13 14 11 7 1 2 3 3 6 9 8 18 9 9 18 17 11 11 11 13 7 13 22 10 10 12 16 15 11 15 16 15 19 15 13 20 23 16 12 10 11 14
12 13 13 13 12 9 6 4 5 6 6 11 9 6 7 3 7 19 18 12 13 15 8 10 7 7 17 14 4 12 3 14 13 12 8 11 4 15 19 17 13 13 12 13 15
12 12 13 13 11 7 4 10 9 11 8 4 2 1 5 3 9 16 11 10 7 9 16 10 8 10 16 17 5 7 15 19 14 15 17 9 14 16 17 14 15 16 16 16 16
12 11 13 13 13 7 3 5 9 2 5 3 4 4 4 6 4 13 10 10 10 7 5 11 6 12 14 14 12 19 18 14 17 12 15 9 7 12 17 17 17 17 18 18 18
12 11 11 8 11 8 2 3 4 2 11 9 5 4 3 3 1 18 13 4 6 10 7 7 13 19 19 16 14 14 15 17 16 12 15 13 2 11 15 18 20 20 18 19 19
12 10 10 4 6 5 3 1 2 3 8 3 4 2 2 2 4 21 15 5 13 16 11 4 17 16 16 16 19 15 15 15 14 11 16 7 7 8 14 18 17 18 20 21 22
13 11 11 3 2 4 4 3 3 4 2 3 2 2 3 2 6 15 15 2 7 13 11 9 8 15 16 17 22 19 12 22 21 20 8 12 5 9 8 14 18 19 18 20 21
13 11 9 1 1 2 2 0 1 2 3 3 2 4 2 2 4 8 11 5 5 10 7 3 9 15 18 18 21 16 26 19 11 7 2 2 1 11 10 13 20 21 21 22 22
13 10 6 5 5 2 3 1 1 2 4 3 2 2 3 4 7 13 9 4 7 6 6 5 9 13 15 19 17 16 26 11 7 4 6 11 6 9 8 17 22 20 22 21 21
14 9 1 1 2 3 3 3 2 2 2 2 1 5 1 6 3 8 7 7 2 2 4 4 4 5 8 18 9 23 14 3 2 2 1 11 6 7 10 15 19 19 20 21 21
14 4 2 1 1 5 4 3 2 2 1 4 3 5 2 6 2 7 6 10 9 7 11 7 1 4 10 15 8 21 16 3 0 3 4 11 3 4 8 12 14 17 19 19 19
11 1 3 2 3 5 3 3 2 3 2 1 2 3 3 7 3 6 4 6 7 5 4 8 4 8 9 6 10 8 7 5 6 6 9 6 6 5 5 11 12 13 14 17 19
4 1 1 2 5 2 4 1 1 1 1 4 2 3 1 1 4 4 5 3 2 6 6 8 4 2 3 4 9 7 7 3 6 5 6 4 2 5 7 13 14 16 17 17 18
2 0 1 2 5 3 3 2 3 1 3 1 1 2 3 4 5 5 3 4 2 0 2 4 8 3 2 4 7 6 2 1 1 8 7 3 4 6 15 17 16 17 16 16 16
1 2 2 4 3 3 0 3 3 2 1 1 2 2 2 3 2 3 2 4 3 3 2 5 3 0 4 5 4 2 4 5 3 4 5 7 1 3 6 12 14 14 14 15 15
2 3 2 3 3 1 2 4 4 4 1 1 1 2 3 3 3 3 4 4 6 3 2 4 2 7 3 3 2 1 1 2 4 3 1 4 7 5 5 9 10 12 13 13 12
4 2 2 3 3 2 2 3 2 4 4 4 5 4 2 3 3 4 4 1 8 4 1 4 3 7 4 4 5 6 4 3 3 1 5 5 5 3 6 9 9 10 12 13 12
3 2 1 3 1 3 4 3 4 1 3 3 3 3 3 4 6 3 4 2 7 4 2 2 4 7 7 9 4 7 6 6 3 5 1 11 18 17 14 14 12 11 11 11 11
2 2 2 2 2 2 1 6 4 5 2 5 4 10 6 4 3 5 5 2 4 2 3 3 6 6 13 18 15 18 17 9 11 9 8 3 8 18 17 14 10 10 11 11 10
2 2 1 0 1 2 1 6 8 4 9 6 7 5 10 6 6 3 4 4 3 4 3 2 4 5 8 4 5 13 16 16 15 8 13 17 21 15 12 7 11 11 9 10 8
2 1 1 3 2 2 3 3 5 6 7 2 8 4 8 12 9 4 4 1 1 3 5 4 4 4 6 2 12 8 9 12 7 9 7 8 7 4 10 10 11 10 9 9 7
Wind_Direction
40 36 36 33 35 33 32 30 28 33 22 17 28 13 157 109 41 29 29 347 348 347 340 341 1 353 10 41 339 267 246 261 267 274 290 9 334 340 318 266 252 257 325 6 339
28 31 25 22 25 25 21 24 30 24 15 14 29 11 136 120 69 31 356 350 348 355 346 354 356 353 48 27 20 243 249 287 26 360 339 321 326 318 304 254 250 251 328 345 352
22 21 17 8 17 15 26 12 32 35 40 41 49 30 147 162 84 356 348 349 349 354 342 350 334 352 57 352 14 332 261 344 325 328 330 315 307 325 292 269 257 309 322 330 330
12 16 11 5 3 15 9 24 29 30 52 41 46 50 43 320 32 343 340 346 348 355 9 7 8 19 28 10 6 304 288 305 314 320 312 300 299 283 281 274 295 306 314 312 324
11 12 2 1 356 349 340 346 330 39 58 58 54 43 35 54 22 337 338 347 356 4 26 29 34 16 27 333 314 281 310 308 308 307 297 297 283 280 274 280 283 285 293 302 308
6 9 6 359 355 344 320 291 264 141 43 77 71 58 65 72 320 346 349 1 6 16 55 56 33 66 16 318 312 320 304 299 298 306 309 311 297 278 329 329 296 292 292 306 351
358 359 1 358 358 7 36 140 162 139 140 114 88 89 64 89 13 356 357 22 22 33 59 68 47 50 337 332 340 303 294 312 286 344 319 339 277 25 350 324 260 294 346 346 356
358 353 357 355 358 0 26 77 102 117 112 106 95 80 76 175 344 14 347 22 30 38 77 55 49 45 19 320 324 347 299 328 325 339 336 338 280 22 7 357 5 2 1 360 359
358 357 353 353 355 9 25 104 75 78 87 127 74 84 70 200 354 2 354 353 31 51 48 48 44 35 9 4 4 355 321 322 327 329 336 347 309 13 16 11 17 4 5 4 357
359 2 355 352 357 2 67 60 46 73 27 90 103 153 97 347 335 353 6 13 37 38 56 33 38 24 15 13 350 322 318 308 311 332 341 308 42 25 20 13 19 15 4 4 356
357 359 355 355 6 18 326 289 237 135 38 58 74 66 351 0 224 8 358 327 17 58 28 25 24 17 358 354 337 311 304 298 296 327 337 324 21 39 28 21 17 12 5 3 2
351 354 358 354 41 35 82 217 25 53 114 70 106 101 13 323 12 11 358 40 27 36 9 37 32 357 345 346 343 335 320 331 309 309 318 306 94 69 32 26 14 7 4 2 358
352 354 2 110 46 64 63 102 331 290 94 116 83 27 357 337 48 2 8 350 26 31 23 43 1 349 347 351 347 340 338 325 305 315 252 241 255 45 34 21 11 12 6 6 2
351 351 5 207 217 98 66 142 274 291 241 73 38 52 349 236 70 28 7 346 51 9 9 35 346 350 347 351 345 320 343 321 305 307 66 264 4 36 4 1 8 5 4 1 360
346 345 32 32 126 123 107 159 264 240 263 69 63 354 15 46 320 32 26 12 41 357 328 15 326 345 349 339 336 311 325 308 295 263 284 28 284 21 17 356 359 360 357 355 356
340 331 87 94 89 86 126 139 217 225 246 110 41 352 346 31 36 339 13 19 41 3 3 332 313 327 343 324 336 334 334 255 186 291 173 359 315 49 10 345 343 350 351 350 350
340 334 94 93 54 136 145 161 225 283 124 32 1 355 31 2 33 20 19 31 28 348 9 330 119 336 355 339 351 1 359 344 186 8 356 360 44 45 352 345 341 340 342 345 347
346 43 68 63 141 151 165 197 264 76 337 46 350 302 49 0 61 17 31 35 56 31 329 0 2 10 357 23 317 5 4 20 318 344 326 4 13 46 275 328 347 345 341 347 350
348 21 162 58 142 211 237 86 350 145 18 339 289 294 82 80 330 337 47 32 357 7 9 348 262 338 356 28 337 356 17 353 288 211 262 353 167 241 334 347 347 347 351 351 350
328 217 152 113 163 222 257 113 138 93 131 198 333 325 317 340 322 353 33 143 142 234 243 110 285 179 18 181 66 22 6 274 15 347 321 322 270 354 348 346 346 344 348 345 346
339 261 90 132 200 240 18 103 138 141 191 248 200 226 243 302 298 294 339 173 198 144 182 154 242 99 231 34 349 9 28 47 286 326 324 313 49 177 323 335 332 330 338 339 340
334 277 88 155 243 13 112 125 122 160 149 156 194 221 235 187 251 259 256 245 166 178 270 169 252 281 333 88 56 24 359 356 335 356 328 292 279 176 249 313 314 325 330 334 336
329 292 143 220 260 127 129 105 164 159 191 184 202 223 210 225 261 230 238 153 173 198 221 160 185 295 176 158 174 247 160 100 71 277 242 288 287 172 252 315 333 325 329 331 332
304 295 129 76 25 136 156 179 179 205 162 189 174 153 190 233 226 274 250 185 192 218 140 244 260 252 274 302 349 283 202 193 230 262 178 244 288 296 303 322 319 328 330 326 331
4 26 17 289 92 103 160 154 153 204 223 197 214 222 193 234 218 226 217 241 184 187 140 253 262 253 262 271 277 266 266 221 201 226 239 332 255 288 297 303 294 309 309 326 332
339 322 168 53 76 154 208 210 199 168 170 214 228 198 197 226 220 252 166 212 263 155 188 193 275 298 284 235 234 262 266 255 222 233 257 269 277 269 282 271 277 294 314 320 326
123 129 268 130 135 183 209 203 212 167 200 236 206 171 218 251 277 301 261 246 183 178 183 224 278 310 271 265 298 255 237 201 192 196 215 237 266 337 292 279 286 297 312 308 311